Showing default

NEE 02 KRYSAOR, 39441

Orbit data source: Space-Track

NEE 02 KRYSAOR, 39441 is a payload satellite owned by EXA (EC) in SSO that was launched on Thu, 21 Nov 2013 UTC via a DNEPR launch vehicle from the Orenburg, Russia (OREN). Payload-class satellites include a variety of spacecraft equipped with specific instruments for various scientific and technological missions. These include communications satellites like Starlink; space stations such as the ISS; scientific satellites like the Hubble; Earth observation satellites from companies like Planet Labs, Umbra, and HawkEye 360; GPS; miniature CubeSats for education and research; and military/defense satellites.

Loading next visibility...
Identifier
39441, 2013-066AB
Orbit
SSO
Country
Flag of ECEC / ECU
Related business
Manufacturer
EXA
Mission
Operational Civil Technology
Bus & Motor
CUBESAT 1U, Unknown motor
Mass
1 kg wet, 1 kg dry
Launch date (UTC)
2013-11-21 (12 years ago)
Launch vehicle
DNEPR
Launch site
Orenburg, Russia (OREN)
Object type
Payload
Rocket body
Debris
Shape & HBR
Box + 2 Pan, 0.1 m
Radar Cross Section
0.022 m², Small (<0.1 m²)

Expand to show TLE details & history
Last TLE update: 5 hours ago

TLE from 5 hours ago
0 NEE 02 KRYSAOR
1 39441U 13066AB  26037.80866507  .00003037  00000-0  33987-3 0  9991
2 39441  97.8788 338.0998 0067968 136.1348 224.5293 14.85972002656835
Epoch: 2026-02-06T19:24Z
TLE epoch observation values (Epoch: 2026-02-06T19:24:28.662Z)
Latitude
0.00002°
Longitude
-89.96085°
Altitude
647.595 km
Speed
7.516 km/s
True Right ascension
22h 32m 23s
True Declination
0° 00' 00"
Sunlit
Object was in daylight at epoch
Visualization orbit readout
Latitude
Unknown
Longitude
Unknown
Altitude
Unknown
Speed
Unknown
Apparent Right ascension
Unknown
Apparent Declination
Unknown
Sunlit
N/A
Visualization observer readout
Local Sidereal Time
02:40:25
Azimuth
Unknown
Elevation
Unknown
Doppler factor
Unknown
Orbital elements
Apogee altitude
655.049 km
Perigee altitude
560.088 km
Semi-major axis
6,985.705 km
Eccentricity
0.0068
Inclination
97.8788°
RAAN
338.0998°
Arg. of periapsis
136.1348°
True anomaly
223.98641°
Mean anomaly
224.5293°
Eccentric anomaly
224.25752°
Mean motion
3.7173 °/min
Orbital period
96.84 mins
BSTAR
0.00033987
Loading maneuver chart data...
Computing Atmospheric mass density...
Loading historical data...
Loading historical data...
Loading historical data...
Loading historical data...
Loading historical data...
Loading historical data...
Loading historical data...

Documentation

Showing up to 5 results
|